TimeEDT,TemperatureF,Dew PointF,Humidity,Sea Level PressureIn,VisibilityMPH,Wind Direction,Wind SpeedMPH,Gust SpeedMPH,PrecipitationIn,Events,Conditions,WindDirDegrees,DateUTC
12:54 AM,78.1,75.0,90,30.15,5.0,Calm,Calm,-,N/A,,Clear,0,2013-07-18 04:54:00
1:54 AM,75.9,73.0,91,30.15,6.0,Calm,Calm,-,N/A,,Clear,0,2013-07-18 05:54:00
2:54 AM,75.9,73.0,91,30.13,5.0,SW,3.5,-,N/A,,Clear,230,2013-07-18 06:54:00
3:54 AM,75.9,73.0,91,30.13,6.0,Calm,Calm,-,N/A,,Clear,0,2013-07-18 07:54:00
4:54 AM,73.9,71.1,91,30.14,5.0,Calm,Calm,-,N/A,,Clear,0,2013-07-18 08:54:00
5:54 AM,73.9,71.1,91,30.14,6.0,Calm,Calm,-,0.01,,Scattered Clouds,0,2013-07-18 09:54:00
6:54 AM,75.0,72.0,90,30.15,10.0,Calm,Calm,-,N/A,,Clear,0,2013-07-18 10:54:00
7:54 AM,79.0,75.0,88,30.15,6.0,Calm,Calm,-,N/A,,Clear,0,2013-07-18 11:54:00
8:54 AM,84.0,75.0,74,30.15,10.0,Calm,Calm,-,N/A,,Clear,0,2013-07-18 12:54:00
9:54 AM,88.0,71.1,57,30.15,10.0,Variable,3.5,-,N/A,,Clear,0,2013-07-18 13:54:00
10:54 AM,89.1,73.0,59,30.15,10.0,NW,4.6,-,N/A,,Partly Cloudy,310,2013-07-18 14:54:00
11:54 AM,91.9,73.0,54,30.15,10.0,Variable,3.5,-,N/A,,Clear,0,2013-07-18 15:54:00
12:54 PM,91.0,69.1,48,30.14,10.0,Calm,Calm,-,N/A,,Scattered Clouds,0,2013-07-18 16:54:00
1:54 PM,91.0,71.1,52,30.13,10.0,Calm,Calm,-,N/A,,Mostly Cloudy,0,2013-07-18 17:54:00
2:54 PM,93.9,71.1,47,30.11,10.0,South,5.8,-,N/A,,Clear,180,2013-07-18 18:54:00
3:54 PM,93.9,72.0,49,30.09,10.0,SSE,8.1,-,N/A,,Clear,160,2013-07-18 19:54:00
4:54 PM,89.1,72.0,57,30.09,10.0,South,10.4,-,N/A,,Mostly Cloudy,190,2013-07-18 20:54:00
5:54 PM,89.1,72.0,57,30.08,10.0,South,8.1,-,N/A,,Partly Cloudy,190,2013-07-18 21:54:00
6:54 PM,88.0,72.0,59,30.08,10.0,South,8.1,-,N/A,,Clear,180,2013-07-18 22:54:00
7:54 PM,84.0,72.0,67,30.09,10.0,SSW,8.1,-,N/A,,Clear,200,2013-07-18 23:54:00
8:54 PM,81.0,73.0,77,30.11,10.0,SSW,8.1,-,N/A,,Clear,210,2013-07-19 00:54:00
9:54 PM,80.1,73.0,79,30.12,10.0,SSW,4.6,-,N/A,,Clear,210,2013-07-19 01:54:00
10:54 PM,79.0,73.9,84,30.13,10.0,SSW,4.6,-,N/A,,Clear,200,2013-07-19 02:54:00
11:54 PM,79.0,73.9,84,30.14,10.0,SSW,5.8,-,N/A,,Partly Cloudy,210,2013-07-19 03:54:00